sat.trackr.live / text

‹ back to catalog

HULIANWANG DIGUI-10

NORAD 62332 · 2024-240K

PAYLOAD ACTIVE UNKNOWN

§ Identity

Operator
Country
PRC
Launch date
2024-12-16
Launch site
WSC
Launch vehicle
Mass (kg)
RCS (m²)

External: N2YO · Heavens-Above · Gunter

§ Orbital elements

Epoch: 2026-09-22T22:10:23.897280Z

Period
108.73 min
Inclination
86.5012°
Eccentricity
0.0001579
Mean motion
13.24413729 rev/d
Perigee alt
1,166.7 km
Apogee alt
1,169.1 km
Semi-major
7,546.0 km
B*
1.0901e-4
RAAN
310.4875°
Arg perigee
87.6493°
Mean anomaly
272.4822°
Rev number
8,557

§ Raw data

HULIANWANG DIGUI-101 62332U 24240K   26265.92388770  .00000061  00000+0  10901-3 0  99932 62332  86.5012 310.4875 0001579  87.6493 272.4822 13.24413729 85575

JSON: /api/v1/satellites/62332 · /tle

For live sub-satellite position, see the globe view (requires WebGL).

§ Visibility from observer

Set your observer location to see the next 7 days of passes ≥ 10°. The values pass through the URL so the page stays shareable.

No JS? Fill the form by hand. The geolocation button needs JavaScript.